Time,TemperatureF,DewpointF,PressureIn,WindDirection,WindDirectionDegrees,WindSpeedMPH,WindSpeedGustMPH,Humidity,HourlyPrecipIn,Conditions,Clouds,dailyrainin,SoftwareType,DateUTC
2013-06-01 00:00:00,52.0,46.0,30.28,North,-999,0.0,0.0,80,0.00,,,0.00,pywws,2013-06-01 07:00:00,
2013-06-01 00:05:00,51.3,46.3,30.28,North,-999,0.0,0.0,83,0.00,,,0.00,pywws,2013-06-01 07:05:00,
2013-06-01 00:10:00,51.3,46.3,30.27,North,-999,0.0,0.0,83,0.00,,,0.00,pywws,2013-06-01 07:10:00,
2013-06-01 00:15:00,51.3,46.0,30.28,North,-999,0.0,0.0,82,0.00,,,0.00,pywws,2013-06-01 07:15:00,
2013-06-01 00:20:00,51.1,45.8,30.28,North,-999,0.0,0.0,82,0.00,,,0.00,pywws,2013-06-01 07:20:00,
2013-06-01 00:25:00,51.1,45.1,30.28,North,-999,0.0,0.0,80,0.00,,,0.00,pywws,2013-06-01 07:25:00,
2013-06-01 00:30:00,50.5,44.9,30.28,North,-999,0.0,0.0,81,0.00,,,0.00,pywws,2013-06-01 07:30:00,
2013-06-01 00:35:00,50.5,44.9,30.27,North,-999,0.0,0.0,81,0.00,,,0.00,pywws,2013-06-01 07:35:00,
2013-06-01 00:40:00,50.5,44.9,30.27,North,-999,0.0,0.0,81,0.00,,,0.00,pywws,2013-06-01 07:40:00,
2013-06-01 00:45:00,48.9,43.7,30.27,North,-999,0.0,0.0,82,0.00,,,0.00,pywws,2013-06-01 07:45:00,
2013-06-01 00:50:00,48.6,43.6,30.28,North,-999,0.0,0.0,83,0.00,,,0.00,pywws,2013-06-01 07:50:00,
2013-06-01 00:55:00,48.2,43.3,30.28,North,-999,0.0,0.0,83,0.00,,,0.00,pywws,2013-06-01 07:55:00,
2013-06-01 01:00:00,48.0,43.7,30.28,North,-999,0.0,0.0,85,0.00,,,0.00,pywws,2013-06-01 08:00:00,
2013-06-01 01:05:00,48.0,43.7,30.28,North,-999,0.0,0.0,85,0.00,,,0.00,pywws,2013-06-01 08:05:00,
2013-06-01 01:10:00,47.3,43.0,30.28,North,-999,0.0,0.0,85,0.00,,,0.00,pywws,2013-06-01 08:10:00,
2013-06-01 01:15:00,47.5,43.2,30.28,North,-999,0.0,0.0,85,0.00,,,0.00,pywws,2013-06-01 08:15:00,
2013-06-01 01:20:00,47.5,43.5,30.27,North,-999,0.0,0.0,86,0.00,,,0.00,pywws,2013-06-01 08:20:00,
2013-06-01 01:25:00,47.5,43.5,30.28,North,-999,0.0,0.0,86,0.00,,,0.00,pywws,2013-06-01 08:25:00,
2013-06-01 01:30:00,47.3,43.3,30.28,North,-999,0.0,0.0,86,0.00,,,0.00,pywws,2013-06-01 08:30:00,
2013-06-01 01:35:00,47.5,43.5,30.28,North,-999,0.0,0.0,86,0.00,,,0.00,pywws,2013-06-01 08:35:00,
2013-06-01 01:40:00,47.5,43.5,30.28,North,-999,0.0,0.0,86,0.00,,,0.00,pywws,2013-06-01 08:40:00,
2013-06-01 01:45:00,47.5,43.5,30.28,North,-999,0.0,0.0,86,0.00,,,0.00,pywws,2013-06-01 08:45:00,
2013-06-01 01:50:00,47.5,43.5,30.28,North,-999,0.0,0.0,86,0.00,,,0.00,pywws,2013-06-01 08:50:00,
2013-06-01 01:55:00,47.7,44.0,30.28,North,-999,0.0,0.0,87,0.00,,,0.00,pywws,2013-06-01 08:55:00,
2013-06-01 02:00:00,47.7,44.0,30.28,North,-999,0.0,0.0,87,0.00,,,0.00,pywws,2013-06-01 09:00:00,
2013-06-01 02:05:00,47.7,44.0,30.28,North,-999,0.0,0.0,87,0.00,,,0.00,pywws,2013-06-01 09:05:00,
2013-06-01 02:10:00,47.8,44.2,30.28,North,-999,0.0,0.0,87,0.00,,,0.00,pywws,2013-06-01 09:10:00,
2013-06-01 02:15:00,47.8,44.2,30.27,North,-999,0.0,0.0,87,0.00,,,0.00,pywws,2013-06-01 09:15:00,
2013-06-01 02:20:00,47.8,44.2,30.27,North,-999,0.0,0.0,87,0.00,,,0.00,pywws,2013-06-01 09:20:00,
2013-06-01 02:25:00,47.8,44.2,30.27,North,-999,0.0,0.0,87,0.00,,,0.00,pywws,2013-06-01 09:25:00,
2013-06-01 02:30:00,47.8,44.2,30.27,North,-999,0.0,0.0,87,0.00,,,0.00,pywws,2013-06-01 09:30:00,
2013-06-01 02:35:00,47.8,44.2,30.27,North,-999,0.0,0.0,87,0.00,,,0.00,pywws,2013-06-01 09:35:00,
2013-06-01 02:40:00,47.8,44.2,30.27,North,-999,0.0,0.0,87,0.00,,,0.00,pywws,2013-06-01 09:40:00,
2013-06-01 02:45:00,47.5,43.8,30.27,North,-999,0.0,0.0,87,0.00,,,0.00,pywws,2013-06-01 09:45:00,
2013-06-01 02:50:00,47.7,44.0,30.27,North,-999,0.0,0.0,87,0.00,,,0.00,pywws,2013-06-01 09:50:00,
2013-06-01 02:55:00,47.7,44.0,30.27,North,-999,0.0,0.0,87,0.00,,,0.00,pywws,2013-06-01 09:55:00,
2013-06-01 03:00:00,47.7,44.0,30.27,North,-999,0.0,0.0,87,0.00,,,0.00,pywws,2013-06-01 10:00:00,
2013-06-01 03:05:00,47.7,44.0,30.27,North,-999,0.0,0.0,87,0.00,,,0.00,pywws,2013-06-01 10:05:00,
2013-06-01 03:10:00,47.7,44.0,30.27,North,-999,0.0,0.0,87,0.00,,,0.00,pywws,2013-06-01 10:10:00,
2013-06-01 03:15:00,47.7,44.0,30.27,North,-999,0.0,0.0,87,0.00,,,0.00,pywws,2013-06-01 10:15:00,
2013-06-01 03:20:00,47.5,43.8,30.27,North,-999,0.0,0.0,87,0.00,,,0.00,pywws,2013-06-01 10:20:00,
2013-06-01 03:25:00,47.5,43.8,30.27,North,-999,0.0,0.0,87,0.00,,,0.00,pywws,2013-06-01 10:25:00,
2013-06-01 03:30:00,47.5,43.8,30.27,North,-999,0.0,0.0,87,0.00,,,0.00,pywws,2013-06-01 10:30:00,
2013-06-01 03:35:00,47.7,44.0,30.27,North,-999,0.0,0.0,87,0.00,,,0.00,pywws,2013-06-01 10:35:00,
2013-06-01 03:40:00,47.5,43.8,30.27,North,-999,0.0,0.0,87,0.00,,,0.00,pywws,2013-06-01 10:40:00,
2013-06-01 03:45:00,47.5,43.8,30.27,North,-999,0.0,0.0,87,0.00,,,0.00,pywws,2013-06-01 10:45:00,
2013-06-01 03:50:00,47.5,44.1,30.26,North,-999,0.0,0.0,88,0.00,,,0.00,pywws,2013-06-01 10:50:00,
2013-06-01 03:55:00,47.5,43.8,30.26,North,-999,0.0,0.0,87,0.00,,,0.00,pywws,2013-06-01 10:55:00,
2013-06-01 04:00:00,47.5,43.8,30.26,North,-999,0.0,0.0,87,0.00,,,0.00,pywws,2013-06-01 11:00:00,
2013-06-01 04:05:00,47.7,44.3,30.26,North,-999,0.0,0.0,88,0.00,,,0.00,pywws,2013-06-01 11:05:00,
2013-06-01 04:10:00,47.7,44.3,30.26,North,-999,0.0,0.0,88,0.00,,,0.00,pywws,2013-06-01 11:10:00,
2013-06-01 04:15:00,47.7,44.3,30.26,North,-999,0.0,0.0,88,0.00,,,0.00,pywws,2013-06-01 11:15:00,
2013-06-01 04:20:00,47.3,43.9,30.26,North,-999,0.0,0.0,88,0.00,,,0.00,pywws,2013-06-01 11:20:00,
2013-06-01 04:25:00,47.7,44.3,30.25,North,-999,0.0,0.0,88,0.00,,,0.00,pywws,2013-06-01 11:25:00,
2013-06-01 04:30:00,47.5,44.1,30.26,North,-999,0.0,0.0,88,0.00,,,0.00,pywws,2013-06-01 11:30:00,
2013-06-01 04:35:00,47.7,44.3,30.25,North,-999,0.0,0.0,88,0.00,,,0.00,pywws,2013-06-01 11:35:00,
2013-06-01 04:40:00,47.8,44.5,30.25,North,-999,0.0,0.0,88,0.00,,,0.00,pywws,2013-06-01 11:40:00,
2013-06-01 04:45:00,47.8,44.5,30.26,North,-999,0.0,0.0,88,0.00,,,0.00,pywws,2013-06-01 11:45:00,
2013-06-01 04:50:00,47.7,44.3,30.25,North,-999,0.0,0.0,88,0.00,,,0.00,pywws,2013-06-01 11:50:00,
2013-06-01 04:55:00,47.8,44.5,30.25,North,-999,0.0,0.0,88,0.00,,,0.00,pywws,2013-06-01 11:55:00,
2013-06-01 05:00:00,47.8,44.5,30.25,North,-999,0.0,0.0,88,0.00,,,0.00,pywws,2013-06-01 12:00:00,
2013-06-01 05:05:00,47.8,44.5,30.25,North,-999,0.0,0.0,88,0.00,,,0.00,pywws,2013-06-01 12:05:00,
2013-06-01 05:10:00,47.7,44.3,30.25,North,-999,0.0,0.0,88,0.00,,,0.00,pywws,2013-06-01 12:10:00,
2013-06-01 05:15:00,47.8,44.5,30.25,North,-999,0.0,0.0,88,0.00,,,0.00,pywws,2013-06-01 12:15:00,
2013-06-01 05:20:00,48.0,44.6,30.24,North,-999,0.0,0.0,88,0.00,,,0.00,pywws,2013-06-01 12:20:00,
2013-06-01 05:25:00,47.8,44.5,30.24,North,-999,0.0,0.0,88,0.00,,,0.00,pywws,2013-06-01 12:25:00,
2013-06-01 05:30:00,47.8,44.5,30.24,North,-999,0.0,0.0,88,0.00,,,0.00,pywws,2013-06-01 12:30:00,
2013-06-01 05:35:00,47.8,44.5,30.25,North,-999,0.0,0.0,88,0.00,,,0.00,pywws,2013-06-01 12:35:00,
2013-06-01 05:40:00,47.8,44.5,30.25,North,-999,0.0,0.0,88,0.00,,,0.00,pywws,2013-06-01 12:40:00,
2013-06-01 05:45:00,48.2,44.5,30.25,North,-999,0.0,0.0,87,0.00,,,0.00,pywws,2013-06-01 12:45:00,
2013-06-01 05:50:00,48.0,44.6,30.25,North,-999,0.0,0.0,88,0.00,,,0.00,pywws,2013-06-01 12:50:00,
2013-06-01 05:55:00,48.0,44.6,30.25,North,-999,0.0,0.0,88,0.00,,,0.00,pywws,2013-06-01 12:55:00,
2013-06-01 06:00:00,48.2,44.5,30.25,North,-999,0.0,0.0,87,0.00,,,0.00,pywws,2013-06-01 13:00:00,
2013-06-01 06:05:00,48.2,44.5,30.25,North,-999,0.0,0.0,87,0.00,,,0.00,pywws,2013-06-01 13:05:00,
2013-06-01 06:10:00,48.4,44.7,30.26,North,-999,0.0,0.0,87,0.00,,,0.00,pywws,2013-06-01 13:10:00,
2013-06-01 06:15:00,48.6,44.9,30.26,North,-999,0.0,0.0,87,0.00,,,0.00,pywws,2013-06-01 13:15:00,
2013-06-01 06:20:00,48.7,45.0,30.26,North,-999,0.0,0.0,87,0.00,,,0.00,pywws,2013-06-01 13:20:00,
2013-06-01 06:25:00,48.9,45.2,30.26,North,-999,0.0,0.0,87,0.00,,,0.00,pywws,2013-06-01 13:25:00,
2013-06-01 06:30:00,48.7,45.0,30.25,North,-999,0.0,0.0,87,0.00,,,0.00,pywws,2013-06-01 13:30:00,
2013-06-01 06:35:00,48.9,45.2,30.25,North,-999,0.0,0.0,87,0.00,,,0.00,pywws,2013-06-01 13:35:00,
2013-06-01 06:40:00,49.3,45.6,30.25,North,-999,0.0,0.0,87,0.00,,,0.00,pywws,2013-06-01 13:40:00,
2013-06-01 06:45:00,49.6,45.9,30.24,North,-999,0.0,0.0,87,0.00,,,0.00,pywws,2013-06-01 13:45:00,
2013-06-01 06:50:00,49.6,45.9,30.24,North,-999,0.0,0.0,87,0.00,,,0.00,pywws,2013-06-01 13:50:00,
2013-06-01 07:04:00,49.8,46.1,30.24,North,-999,0.0,0.0,87,0.00,,,0.00,pywws,2013-06-01 14:04:00,
2013-06-01 07:05:00,50.2,46.2,30.24,North,-999,0.0,0.0,86,0.00,,,0.00,pywws,2013-06-01 14:05:00,
2013-06-01 07:10:00,50.5,46.5,30.24,North,-999,0.0,0.0,86,0.00,,,0.00,pywws,2013-06-01 14:10:00,
2013-06-01 07:15:00,51.1,47.0,30.24,North,-999,0.0,0.0,86,0.00,,,0.00,pywws,2013-06-01 14:15:00,
2013-06-01 07:20:00,50.7,46.4,30.24,North,-999,0.0,0.0,85,0.00,,,0.00,pywws,2013-06-01 14:20:00,
2013-06-01 07:25:00,51.1,46.7,30.24,North,-999,0.0,0.0,85,0.00,,,0.00,pywws,2013-06-01 14:25:00,
2013-06-01 07:30:00,51.1,46.7,30.24,North,-999,0.0,0.0,85,0.00,,,0.00,pywws,2013-06-01 14:30:00,
2013-06-01 07:35:00,51.3,46.9,30.24,North,-999,0.0,0.0,85,0.00,,,0.00,pywws,2013-06-01 14:35:00,
2013-06-01 07:40:00,51.1,46.7,30.24,North,-999,0.0,0.0,85,0.00,,,0.00,pywws,2013-06-01 14:40:00,
2013-06-01 07:45:00,51.6,47.3,30.24,North,-999,0.0,0.0,85,0.00,,,0.00,pywws,2013-06-01 14:45:00,
2013-06-01 07:50:00,52.0,47.3,30.24,North,-999,0.0,0.0,84,0.00,,,0.00,pywws,2013-06-01 14:50:00,
2013-06-01 08:03:00,51.8,47.1,30.24,North,-999,0.0,0.0,84,0.00,,,0.00,pywws,2013-06-01 15:03:00,
2013-06-01 08:05:00,52.5,47.8,30.23,North,-999,0.0,0.0,84,0.00,,,0.00,pywws,2013-06-01 15:05:00,
2013-06-01 08:10:00,53.1,48.0,30.23,North,-999,0.0,0.0,83,0.00,,,0.00,pywws,2013-06-01 15:10:00,
2013-06-01 08:15:00,53.6,48.2,30.23,North,-999,0.0,0.0,82,0.00,,,0.00,pywws,2013-06-01 15:15:00,
2013-06-01 08:20:00,54.0,48.6,30.23,North,-999,0.0,0.0,82,0.00,,,0.00,pywws,2013-06-01 15:20:00,
2013-06-01 08:25:00,54.1,48.4,30.23,North,-999,0.0,0.0,81,0.00,,,0.00,pywws,2013-06-01 15:25:00,
2013-06-01 08:30:00,53.8,48.1,30.23,North,-999,0.0,0.0,81,0.00,,,0.00,pywws,2013-06-01 15:30:00,
2013-06-01 08:35:00,54.3,48.6,30.23,North,-999,0.0,0.0,81,0.00,,,0.00,pywws,2013-06-01 15:35:00,
2013-06-01 08:40:00,55.0,49.3,30.23,North,-999,0.0,0.0,81,0.00,,,0.00,pywws,2013-06-01 15:40:00,
2013-06-01 08:45:00,54.7,49.0,30.23,North,-999,0.0,0.0,81,0.00,,,0.00,pywws,2013-06-01 15:45:00,
2013-06-01 08:50:00,55.0,49.3,30.23,North,-999,0.0,0.0,81,0.00,,,0.00,pywws,2013-06-01 15:50:00,
2013-06-01 09:01:00,55.0,49.0,30.23,North,-999,0.0,0.0,80,0.00,,,0.00,pywws,2013-06-01 16:01:00,
2013-06-01 09:04:00,55.0,48.6,30.23,North,-999,0.0,0.0,79,0.00,,,0.00,pywws,2013-06-01 16:04:00,
2013-06-01 09:09:00,55.6,48.8,30.22,North,-999,0.0,0.0,78,0.00,,,0.00,pywws,2013-06-01 16:09:00,
2013-06-01 09:14:00,55.0,48.6,30.22,North,-999,0.0,0.0,79,0.00,,,0.00,pywws,2013-06-01 16:14:00,
2013-06-01 09:19:00,55.2,48.5,30.22,North,-999,0.0,0.0,78,0.00,,,0.00,pywws,2013-06-01 16:19:00,
2013-06-01 09:24:00,55.4,48.3,30.22,North,-999,0.0,0.0,77,0.00,,,0.00,pywws,2013-06-01 16:24:00,
2013-06-01 09:29:00,55.4,48.0,30.22,North,-999,0.0,0.0,76,0.00,,,0.00,pywws,2013-06-01 16:29:00,
2013-06-01 09:34:00,55.6,48.1,30.22,North,-999,0.0,0.0,76,0.00,,,0.00,pywws,2013-06-01 16:34:00,
2013-06-01 09:39:00,55.9,48.5,30.22,North,-999,0.0,0.0,76,0.00,,,0.00,pywws,2013-06-01 16:39:00,
2013-06-01 09:44:00,56.5,49.0,30.21,North,-999,0.0,0.0,76,0.00,,,0.00,pywws,2013-06-01 16:44:00,
2013-06-01 09:49:00,57.0,49.5,30.21,North,-999,0.0,0.0,76,0.00,,,0.00,pywws,2013-06-01 16:49:00,
2013-06-01 10:04:00,57.0,49.5,30.21,North,-999,0.0,0.0,76,0.00,,,0.00,pywws,2013-06-01 17:04:00,
2013-06-01 10:05:00,57.9,50.0,30.21,North,-999,0.0,0.0,75,0.00,,,0.00,pywws,2013-06-01 17:05:00,
2013-06-01 10:10:00,58.3,50.0,30.20,North,-999,0.0,0.0,74,0.00,,,0.00,pywws,2013-06-01 17:10:00,
2013-06-01 10:15:00,57.9,49.7,30.20,North,-999,0.0,0.0,74,0.00,,,0.00,pywws,2013-06-01 17:15:00,
2013-06-01 10:20:00,58.1,49.5,30.20,North,-999,0.0,0.0,73,0.00,,,0.00,pywws,2013-06-01 17:20:00,
2013-06-01 10:25:00,58.8,49.8,30.20,North,-999,0.0,1.6,72,0.00,,,0.00,pywws,2013-06-01 17:25:00,
2013-06-01 10:30:00,58.6,49.6,30.20,South,180,0.7,1.6,72,0.00,,,0.00,pywws,2013-06-01 17:30:00,
2013-06-01 10:35:00,58.8,49.8,30.20,North,-999,0.0,0.0,72,0.00,,,0.00,pywws,2013-06-01 17:35:00,
2013-06-01 10:40:00,59.7,50.3,30.20,North,-999,0.0,0.0,71,0.00,,,0.00,pywws,2013-06-01 17:40:00,
2013-06-01 10:45:00,59.9,50.5,30.20,North,-999,0.0,0.0,71,0.00,,,0.00,pywws,2013-06-01 17:45:00,
2013-06-01 10:50:00,59.9,50.5,30.19,North,-999,0.0,0.0,71,0.00,,,0.00,pywws,2013-06-01 17:50:00,
2013-06-01 11:03:00,59.9,50.1,30.19,North,-999,0.0,1.6,70,0.00,,,0.00,pywws,2013-06-01 18:03:00,
2013-06-01 11:05:00,60.4,50.2,30.19,North,-999,0.0,0.0,69,0.00,,,0.00,pywws,2013-06-01 18:05:00,
2013-06-01 11:10:00,61.0,50.3,30.19,South,180,0.7,1.6,68,0.00,,,0.00,pywws,2013-06-01 18:10:00,
2013-06-01 11:15:00,61.0,49.5,30.19,North,-999,0.0,0.0,66,0.00,,,0.00,pywws,2013-06-01 18:15:00,
2013-06-01 11:20:00,61.7,49.8,30.18,North,-999,0.0,0.0,65,0.00,,,0.00,pywws,2013-06-01 18:20:00,
2013-06-01 11:25:00,63.1,50.8,30.18,North,-999,0.0,1.6,64,0.00,,,0.00,pywws,2013-06-01 18:25:00,
2013-06-01 11:30:00,63.0,50.2,30.18,North,-999,0.0,0.0,63,0.00,,,0.00,pywws,2013-06-01 18:30:00,
2013-06-01 11:35:00,63.1,51.2,30.18,SE,135,1.6,2.2,65,0.00,,,0.00,pywws,2013-06-01 18:35:00,
2013-06-01 11:40:00,63.0,50.6,30.19,North,-999,0.0,0.7,64,0.00,,,0.00,pywws,2013-06-01 18:40:00,
2013-06-01 11:45:00,63.7,51.3,30.18,North,-999,0.0,0.0,64,0.00,,,0.00,pywws,2013-06-01 18:45:00,
2013-06-01 11:50:00,63.5,50.7,30.19,North,-999,0.0,0.0,63,0.00,,,0.00,pywws,2013-06-01 18:50:00,
2013-06-01 12:03:00,65.3,52.8,30.18,South,180,0.7,1.6,64,0.00,,,0.00,pywws,2013-06-01 19:03:00,
2013-06-01 12:04:00,63.3,51.3,30.18,North,-999,0.0,0.0,65,0.00,,,0.00,pywws,2013-06-01 19:04:00,
2013-06-01 12:09:00,63.9,52.3,30.18,North,-999,0.0,0.0,66,0.00,,,0.00,pywws,2013-06-01 19:09:00,
2013-06-01 12:14:00,63.9,51.9,30.18,North,-999,0.0,0.0,65,0.00,,,0.00,pywws,2013-06-01 19:14:00,
2013-06-01 12:19:00,63.9,51.4,30.18,North,-999,0.0,0.0,64,0.00,,,0.00,pywws,2013-06-01 19:19:00,
2013-06-01 12:24:00,64.2,51.4,30.17,North,-999,0.0,0.0,63,0.00,,,0.00,pywws,2013-06-01 19:24:00,
2013-06-01 12:29:00,64.8,51.4,30.17,North,-999,0.0,0.0,62,0.00,,,0.00,pywws,2013-06-01 19:29:00,
2013-06-01 12:34:00,66.2,53.7,30.17,North,-999,0.0,0.0,64,0.00,,,0.00,pywws,2013-06-01 19:34:00,
2013-06-01 12:39:00,64.4,51.5,30.17,North,-999,0.0,0.0,63,0.00,,,0.00,pywws,2013-06-01 19:39:00,
2013-06-01 12:44:00,64.6,51.7,30.17,North,-999,0.0,0.0,63,0.00,,,0.00,pywws,2013-06-01 19:44:00,
2013-06-01 12:49:00,64.2,51.4,30.17,North,-999,0.0,0.0,63,0.00,,,0.00,pywws,2013-06-01 19:49:00,
2013-06-01 13:04:00,63.9,50.6,30.17,North,-999,0.0,0.0,62,0.00,,,0.00,pywws,2013-06-01 20:04:00,
2013-06-01 13:05:00,64.4,50.2,30.16,North,-999,0.0,0.0,60,0.00,,,0.00,pywws,2013-06-01 20:05:00,
2013-06-01 13:10:00,64.6,51.3,30.16,North,-999,0.0,0.0,62,0.00,,,0.00,pywws,2013-06-01 20:10:00,
2013-06-01 13:15:00,64.8,49.6,30.16,North,-999,0.0,0.0,58,0.00,,,0.00,pywws,2013-06-01 20:15:00,
2013-06-01 13:20:00,65.1,51.3,30.16,North,-999,0.0,0.0,61,0.00,,,0.00,pywws,2013-06-01 20:20:00,
2013-06-01 13:25:00,66.2,53.2,30.16,North,-999,0.0,0.0,63,0.00,,,0.00,pywws,2013-06-01 20:25:00,
2013-06-01 13:30:00,68.4,50.6,30.16,North,-999,0.0,0.0,53,0.00,,,0.00,pywws,2013-06-01 20:30:00,
2013-06-01 13:35:00,67.5,50.7,30.16,North,-999,0.0,0.0,55,0.00,,,0.00,pywws,2013-06-01 20:35:00,
2013-06-01 13:40:00,70.2,52.7,30.15,South,180,1.6,2.2,54,0.00,,,0.00,pywws,2013-06-01 20:40:00,
2013-06-01 13:45:00,66.9,47.7,30.16,West,270,0.7,1.6,50,0.00,,,0.00,pywws,2013-06-01 20:45:00,
2013-06-01 13:50:00,67.1,50.4,30.16,North,-999,0.0,0.0,55,0.00,,,0.00,pywws,2013-06-01 20:50:00,
2013-06-01 14:03:00,65.1,49.0,30.16,North,-999,0.0,0.0,56,0.00,,,0.00,pywws,2013-06-01 21:03:00,
2013-06-01 14:04:00,64.9,50.7,30.16,North,-999,0.0,0.0,60,0.00,,,0.00,pywws,2013-06-01 21:04:00,
2013-06-01 14:09:00,66.0,53.1,30.16,North,-999,0.0,0.0,63,0.00,,,0.00,pywws,2013-06-01 21:09:00,
2013-06-01 14:14:00,67.1,52.3,30.15,East,90,0.7,1.6,59,0.00,,,0.00,pywws,2013-06-01 21:14:00,
2013-06-01 14:19:00,69.1,52.2,30.15,North,-999,0.0,0.0,55,0.00,,,0.00,pywws,2013-06-01 21:19:00,
2013-06-01 14:24:00,69.3,51.9,30.15,North,-999,0.0,0.0,54,0.00,,,0.00,pywws,2013-06-01 21:24:00,
2013-06-01 14:29:00,70.0,48.2,30.15,North,-999,0.0,0.0,46,0.00,,,0.00,pywws,2013-06-01 21:29:00,
2013-06-01 14:34:00,71.2,51.6,30.15,North,-999,0.0,0.0,50,0.00,,,0.00,pywws,2013-06-01 21:34:00,
2013-06-01 14:39:00,69.4,49.4,30.15,East,90,1.6,3.1,49,0.00,,,0.00,pywws,2013-06-01 21:39:00,
2013-06-01 14:44:00,69.4,52.1,30.14,North,-999,0.0,0.0,54,0.00,,,0.00,pywws,2013-06-01 21:44:00,
2013-06-01 14:49:00,70.3,51.3,30.14,North,-999,0.0,0.0,51,0.00,,,0.00,pywws,2013-06-01 21:49:00,
2013-06-01 15:04:00,69.4,49.4,30.14,South,180,1.6,3.1,49,0.00,,,0.00,pywws,2013-06-01 22:04:00,
2013-06-01 15:05:00,68.9,51.1,30.14,North,-999,0.0,0.7,53,0.00,,,0.00,pywws,2013-06-01 22:05:00,
2013-06-01 15:10:00,69.6,48.5,30.14,North,-999,0.0,0.0,47,0.00,,,0.00,pywws,2013-06-01 22:10:00,
2013-06-01 15:15:00,69.6,49.0,30.14,North,-999,0.0,0.7,48,0.00,,,0.00,pywws,2013-06-01 22:15:00,
2013-06-01 15:20:00,69.1,50.7,30.14,North,-999,0.0,0.0,52,0.00,,,0.00,pywws,2013-06-01 22:20:00,
2013-06-01 15:25:00,70.0,48.2,30.14,North,-999,0.0,0.0,46,0.00,,,0.00,pywws,2013-06-01 22:25:00,
2013-06-01 15:30:00,69.4,47.7,30.14,SE,135,0.7,1.6,46,0.00,,,0.00,pywws,2013-06-01 22:30:00,
2013-06-01 15:35:00,68.7,44.7,30.14,North,-999,0.0,1.6,42,0.00,,,0.00,pywws,2013-06-01 22:35:00,
2013-06-01 15:40:00,68.9,51.1,30.14,North,-999,0.0,0.0,53,0.00,,,0.00,pywws,2013-06-01 22:40:00,
2013-06-01 15:45:00,69.1,46.2,30.13,North,-999,0.0,1.6,44,0.00,,,0.00,pywws,2013-06-01 22:45:00,
2013-06-01 15:50:00,68.7,47.7,30.14,South,180,1.6,2.2,47,0.00,,,0.00,pywws,2013-06-01 22:50:00,
2013-06-01 16:03:00,69.4,52.6,30.14,North,-999,0.0,0.0,55,0.00,,,0.00,pywws,2013-06-01 23:03:00,
2013-06-01 16:05:00,69.4,51.0,30.14,North,-999,0.0,1.6,52,0.00,,,0.00,pywws,2013-06-01 23:05:00,
2013-06-01 16:10:00,69.8,47.5,30.13,North,-999,0.0,0.0,45,0.00,,,0.00,pywws,2013-06-01 23:10:00,
2013-06-01 16:15:00,69.4,50.5,30.13,South,180,0.7,1.6,51,0.00,,,0.00,pywws,2013-06-01 23:15:00,
2013-06-01 16:20:00,69.6,51.7,30.12,North,-999,0.0,0.7,53,0.00,,,0.00,pywws,2013-06-01 23:20:00,
2013-06-01 16:25:00,69.8,52.9,30.12,North,-999,0.0,0.0,55,0.00,,,0.00,pywws,2013-06-01 23:25:00,
2013-06-01 16:30:00,68.7,52.4,30.12,South,180,0.7,2.2,56,0.00,,,0.00,pywws,2013-06-01 23:30:00,
2013-06-01 16:35:00,68.7,52.9,30.12,South,180,1.6,2.2,57,0.00,,,0.00,pywws,2013-06-01 23:35:00,
2013-06-01 16:40:00,68.9,52.5,30.12,North,-999,0.0,0.0,56,0.00,,,0.00,pywws,2013-06-01 23:40:00,
2013-06-01 16:45:00,68.9,52.5,30.12,North,-999,0.0,0.0,56,0.00,,,0.00,pywws,2013-06-01 23:45:00,
2013-06-01 16:50:00,69.4,52.6,30.12,North,0,0.7,2.2,55,0.00,,,0.00,pywws,2013-06-01 23:50:00,
2013-06-01 16:55:00,69.4,50.5,30.12,North,-999,0.0,1.6,51,0.00,,,0.00,pywws,2013-06-01 23:55:00,
2013-06-01 17:00:00,72.0,49.4,30.12,North,-999,0.0,0.7,45,0.00,,,0.00,pywws,2013-06-02 00:00:00,
2013-06-01 17:05:00,72.0,49.4,30.11,North,-999,0.0,0.7,45,0.00,,,0.00,pywws,2013-06-02 00:05:00,
2013-06-01 17:10:00,72.3,49.2,30.11,NW,315,2.2,6.0,44,0.00,,,0.00,pywws,2013-06-02 00:10:00,
2013-06-01 17:15:00,69.4,46.0,30.11,North,-999,0.0,0.0,43,0.00,,,0.00,pywws,2013-06-02 00:15:00,
2013-06-01 17:20:00,69.6,49.0,30.11,North,0,0.7,2.2,48,0.00,,,0.00,pywws,2013-06-02 00:20:00,
2013-06-01 17:25:00,69.1,51.2,30.11,North,-999,0.0,0.0,53,0.00,,,0.00,pywws,2013-06-02 00:25:00,
2013-06-01 17:30:00,68.0,49.7,30.11,North,-999,0.0,0.0,52,0.00,,,0.00,pywws,2013-06-02 00:30:00,
2013-06-01 17:35:00,68.9,51.6,30.10,North,-999,0.0,0.0,54,0.00,,,0.00,pywws,2013-06-02 00:35:00,
2013-06-01 17:40:00,68.7,50.9,30.10,East,90,1.6,2.2,53,0.00,,,0.00,pywws,2013-06-02 00:40:00,
2013-06-01 17:45:00,68.2,51.9,30.10,North,-999,0.0,0.0,56,0.00,,,0.00,pywws,2013-06-02 00:45:00,
2013-06-01 17:50:00,68.2,47.7,30.10,North,-999,0.0,0.0,48,0.00,,,0.00,pywws,2013-06-02 00:50:00,
2013-06-01 18:03:00,68.7,50.9,30.10,North,-999,0.0,0.0,53,0.00,,,0.00,pywws,2013-06-02 01:03:00,
2013-06-01 18:04:00,69.6,47.3,30.09,North,-999,0.0,0.0,45,0.00,,,0.00,pywws,2013-06-02 01:04:00,
2013-06-01 18:09:00,68.7,51.9,30.09,North,-999,0.0,0.0,55,0.00,,,0.00,pywws,2013-06-02 01:09:00,
2013-06-01 18:14:00,69.1,51.7,30.09,North,-999,0.0,0.0,54,0.00,,,0.00,pywws,2013-06-02 01:14:00,
2013-06-01 18:19:00,69.4,50.0,30.09,North,-999,0.0,0.0,50,0.00,,,0.00,pywws,2013-06-02 01:19:00,
2013-06-01 18:24:00,67.5,53.1,30.09,North,-999,0.0,0.0,60,0.00,,,0.00,pywws,2013-06-02 01:24:00,
2013-06-01 18:29:00,67.8,53.4,30.09,North,-999,0.0,0.0,60,0.00,,,0.00,pywws,2013-06-02 01:29:00,
2013-06-01 18:34:00,66.6,54.0,30.09,North,-999,0.0,0.0,64,0.00,,,0.00,pywws,2013-06-02 01:34:00,
2013-06-01 18:39:00,66.6,52.7,30.09,North,-999,0.0,0.0,61,0.00,,,0.00,pywws,2013-06-02 01:39:00,
2013-06-01 18:44:00,66.9,53.0,30.09,North,-999,0.0,0.0,61,0.00,,,0.00,pywws,2013-06-02 01:44:00,
2013-06-01 18:49:00,66.9,54.3,30.09,North,-999,0.0,0.0,64,0.00,,,0.00,pywws,2013-06-02 01:49:00,
2013-06-01 19:04:00,66.2,53.2,30.09,SE,135,2.2,4.5,63,0.00,,,0.00,pywws,2013-06-02 02:04:00,
2013-06-01 19:05:00,68.0,50.2,30.09,South,180,0.7,1.6,53,0.00,,,0.00,pywws,2013-06-02 02:05:00,
2013-06-01 19:10:00,66.9,50.7,30.09,East,90,1.6,3.1,56,0.00,,,0.00,pywws,2013-06-02 02:10:00,
2013-06-01 19:15:00,67.3,50.6,30.09,South,180,1.6,3.8,55,0.00,,,0.00,pywws,2013-06-02 02:15:00,
2013-06-01 19:20:00,66.6,49.9,30.09,North,-999,0.0,1.6,55,0.00,,,0.00,pywws,2013-06-02 02:20:00,
2013-06-01 19:25:00,66.0,50.8,30.09,North,-999,0.0,0.0,58,0.00,,,0.00,pywws,2013-06-02 02:25:00,
2013-06-01 19:30:00,65.7,51.8,30.09,North,-999,0.0,0.0,61,0.00,,,0.00,pywws,2013-06-02 02:30:00,
2013-06-01 19:35:00,64.4,51.5,30.09,East,90,0.7,2.2,63,0.00,,,0.00,pywws,2013-06-02 02:35:00,
2013-06-01 19:40:00,64.6,51.3,30.09,North,-999,0.0,0.0,62,0.00,,,0.00,pywws,2013-06-02 02:40:00,
2013-06-01 19:45:00,64.4,52.4,30.09,North,-999,0.0,0.0,65,0.00,,,0.00,pywws,2013-06-02 02:45:00,
2013-06-01 19:50:00,64.4,52.0,30.08,North,-999,0.0,0.0,64,0.00,,,0.00,pywws,2013-06-02 02:50:00,
2013-06-01 20:03:00,64.2,51.8,30.08,North,-999,0.0,0.0,64,0.00,,,0.00,pywws,2013-06-02 03:03:00,
2013-06-01 20:04:00,64.4,51.1,30.08,North,-999,0.0,0.0,62,0.00,,,0.00,pywws,2013-06-02 03:04:00,
2013-06-01 20:09:00,64.0,50.8,30.08,North,-999,0.0,0.0,62,0.00,,,0.00,pywws,2013-06-02 03:09:00,
2013-06-01 20:14:00,63.7,50.8,30.08,North,-999,0.0,0.0,63,0.00,,,0.00,pywws,2013-06-02 03:14:00,
2013-06-01 20:19:00,63.1,50.8,30.08,North,-999,0.0,0.0,64,0.00,,,0.00,pywws,2013-06-02 03:19:00,
2013-06-01 20:24:00,63.0,50.2,30.07,East,90,0.7,1.6,63,0.00,,,0.00,pywws,2013-06-02 03:24:00,
2013-06-01 20:29:00,62.1,51.0,30.08,North,-999,0.0,0.0,67,0.00,,,0.00,pywws,2013-06-02 03:29:00,
2013-06-01 20:34:00,62.1,51.4,30.08,North,-999,0.0,0.0,68,0.00,,,0.00,pywws,2013-06-02 03:34:00,
2013-06-01 20:39:00,62.1,50.6,30.08,North,-999,0.0,0.0,66,0.00,,,0.00,pywws,2013-06-02 03:39:00,
2013-06-01 20:44:00,61.7,50.2,30.09,North,-999,0.0,0.0,66,0.00,,,0.00,pywws,2013-06-02 03:44:00,
2013-06-01 20:49:00,61.2,50.1,30.09,East,90,1.6,2.2,67,0.00,,,0.00,pywws,2013-06-02 03:49:00,
2013-06-01 21:04:00,61.0,50.3,30.09,North,-999,0.0,0.0,68,0.00,,,0.00,pywws,2013-06-02 04:04:00,
2013-06-01 21:05:00,60.6,51.2,30.09,North,-999,0.0,0.0,71,0.00,,,0.00,pywws,2013-06-02 04:05:00,
2013-06-01 21:10:00,60.3,51.2,30.09,North,-999,0.0,0.7,72,0.00,,,0.00,pywws,2013-06-02 04:10:00,
2013-06-01 21:15:00,59.9,51.2,30.09,North,-999,0.0,0.0,73,0.00,,,0.00,pywws,2013-06-02 04:15:00,
2013-06-01 21:20:00,59.9,51.6,30.09,North,-999,0.0,0.0,74,0.00,,,0.00,pywws,2013-06-02 04:20:00,
2013-06-01 21:25:00,59.9,51.2,30.09,North,-999,0.0,0.0,73,0.00,,,0.00,pywws,2013-06-02 04:25:00,
2013-06-01 21:30:00,59.7,51.0,30.09,North,-999,0.0,0.0,73,0.00,,,0.00,pywws,2013-06-02 04:30:00,
2013-06-01 21:35:00,59.7,51.0,30.09,North,-999,0.0,0.7,73,0.00,,,0.00,pywws,2013-06-02 04:35:00,
2013-06-01 21:40:00,59.7,51.0,30.09,North,-999,0.0,0.0,73,0.00,,,0.00,pywws,2013-06-02 04:40:00,
2013-06-01 21:45:00,59.7,51.0,30.10,North,-999,0.0,0.0,73,0.00,,,0.00,pywws,2013-06-02 04:45:00,
2013-06-01 21:50:00,59.5,50.9,30.09,North,-999,0.0,0.0,73,0.00,,,0.00,pywws,2013-06-02 04:50:00,
2013-06-01 22:03:00,59.5,51.2,30.10,North,-999,0.0,0.0,74,0.00,,,0.00,pywws,2013-06-02 05:03:00,
2013-06-01 22:04:00,59.4,51.1,30.10,North,-999,0.0,0.0,74,0.00,,,0.00,pywws,2013-06-02 05:04:00,
2013-06-01 22:09:00,59.5,50.9,30.09,North,-999,0.0,1.6,73,0.00,,,0.00,pywws,2013-06-02 05:09:00,
2013-06-01 22:14:00,59.4,50.7,30.09,North,-999,0.0,0.0,73,0.00,,,0.00,pywws,2013-06-02 05:14:00,
2013-06-01 22:19:00,59.0,50.4,30.09,North,-999,0.0,0.0,73,0.00,,,0.00,pywws,2013-06-02 05:19:00,
2013-06-01 22:24:00,58.6,51.1,30.10,North,-999,0.0,0.0,76,0.00,,,0.00,pywws,2013-06-02 05:24:00,
2013-06-01 22:29:00,58.8,51.3,30.09,North,-999,0.0,0.0,76,0.00,,,0.00,pywws,2013-06-02 05:29:00,
2013-06-01 22:34:00,58.6,51.1,30.09,North,-999,0.0,0.0,76,0.00,,,0.00,pywws,2013-06-02 05:34:00,
2013-06-01 22:39:00,58.5,50.9,30.10,North,-999,0.0,0.0,76,0.00,,,0.00,pywws,2013-06-02 05:39:00,
2013-06-01 22:44:00,58.5,50.6,30.09,North,-999,0.0,0.0,75,0.00,,,0.00,pywws,2013-06-02 05:44:00,
2013-06-01 22:49:00,58.3,50.4,30.10,North,-999,0.0,0.0,75,0.00,,,0.00,pywws,2013-06-02 05:49:00,
2013-06-01 22:54:00,58.6,50.7,30.09,North,-999,0.0,0.0,75,0.00,,,0.00,pywws,2013-06-02 05:54:00,
2013-06-01 22:59:00,58.6,50.4,30.09,North,-999,0.0,0.0,74,0.00,,,0.00,pywws,2013-06-02 05:59:00,
2013-06-01 23:04:00,58.6,50.4,30.09,North,-999,0.0,0.0,74,0.00,,,0.00,pywws,2013-06-02 06:04:00,
2013-06-01 23:09:00,58.3,50.0,30.09,North,-999,0.0,0.0,74,0.00,,,0.00,pywws,2013-06-02 06:09:00,
2013-06-01 23:14:00,57.7,49.9,30.09,North,-999,0.0,1.6,75,0.00,,,0.00,pywws,2013-06-02 06:14:00,
2013-06-01 23:19:00,57.4,50.2,30.09,North,-999,0.0,0.0,77,0.00,,,0.00,pywws,2013-06-02 06:19:00,
2013-06-01 23:24:00,57.4,50.2,30.09,North,-999,0.0,0.0,77,0.00,,,0.00,pywws,2013-06-02 06:24:00,
2013-06-01 23:29:00,57.9,50.4,30.09,West,270,1.6,3.8,76,0.00,,,0.00,pywws,2013-06-02 06:29:00,
2013-06-01 23:34:00,57.7,49.9,30.09,West,270,0.7,2.2,75,0.00,,,0.00,pywws,2013-06-02 06:34:00,
2013-06-01 23:39:00,57.0,49.9,30.09,West,270,0.7,1.6,77,0.00,,,0.00,pywws,2013-06-02 06:39:00,
2013-06-01 23:44:00,58.6,50.0,30.09,West,270,0.7,2.2,73,0.00,,,0.00,pywws,2013-06-02 06:44:00,
2013-06-01 23:49:00,58.6,49.3,30.09,North,-999,0.0,0.7,71,0.00,,,0.00,pywws,2013-06-02 06:49:00,
2013-06-01 23:54:00,58.5,49.1,30.09,NW,315,0.7,2.2,71,0.00,,,0.00,pywws,2013-06-02 06:54:00,
2013-06-01 23:59:00,57.4,48.8,30.09,West,270,0.7,1.6,73,0.00,,,0.00,pywws,2013-06-02 06:59:00,